Location: Poughquag
(41.6090°N, 73.6820°W)
Time: 11:04:01
(UTC-04:00)

Transit 4A - Pass Details

Date: 03 June 2020
Orbit: 866 x 978 km, 66.8° (Epoch: 06 July)

Event Time Altitude Azimuth Distance (km) Brightness Sun altitude
Rises 03:46:27 0° 268° (W) 3,456 - -14.5°
Exits shadow 03:47:44 - 274° (W) 3,096 10.3 -14.3°
Reaches altitude 10° 03:50:11 10° 292° (WNW) 2,534 10.0 -14.0°
Maximum altitude 03:53:20 15° 324° (NW) 2,235 10.0 -13.6°
Drops below altitude 10° 03:56:32 10° 357° (N) 2,572 10.9 -13.2°
Sets 04:00:22 0° 21° (NNE) 3,540 12.3 -12.7°
